CZ-6A DEB, 61267

Orbit data source: Space-Track

CZ-6A DEB, 61267 is space debris in LEO originally from a launch on Tue, 06 Aug 2024 UTC launched from the Taiyaun Space Center, China (TSC). Debris objects in space refer to the collection of defunct objects orbiting the Earth. Examples of debris include non-operational satellites, rocket bodies, and fragments generated from explosions, collisions, or faulty payload assembly.

Loading next visibility...
Identifier
61267, 2024-140SC
Orbit
LEO
Country
Flag of CNCN / PRC
Related business
Manufacturer
SAST
Mission
Spacecraft
Bus & Motor
Unknown
Mass
Unknown
Launch date (UTC)
2024-08-06 (2 years ago)
Launch vehicle
Unknown
Launch site
Taiyaun Space Center, China (TSC)
Object type
Payload
Rocket body
Debris
Shape & HBR
Unknown shape, 0.1 m
Radar Cross Section
Medium (>0.1 m² and <1 m²)

Expand to show TLE details & history
Last TLE update: 13 hours ago

TLE from 13 hours ago
0 CZ-6A DEB
1 61267U 24140SC  26171.29638169  .00001364  00000-0  57462-3 0  9995
2 61267  89.1519 286.1307 0051172 205.2492 154.6199 14.24536527 94304
Epoch: 2026-06-20T07:06Z
TLE epoch observation values (Epoch: 2026-06-20T07:06:47.378Z)
Latitude
Longitude
-89.07975°
Altitude
846.386 km
Speed
7.412 km/s
True Right ascension
19h 04m 31s
True Declination
0° 00' 00"
Sunlit
Object was in full shadow at epoch
Visualization orbit readout
Latitude
Unknown
Longitude
Unknown
Altitude
Unknown
Speed
Unknown
Apparent Right ascension
Unknown
Apparent Declination
Unknown
Sunlit
N/A
Visualization observer readout
Local Sidereal Time
07:23:23
Azimuth
Unknown
Elevation
Unknown
Doppler factor
Unknown
Orbital elements
Apogee altitude
843.763 km
Perigee altitude
770.227 km
Semi-major axis
7,185.132 km
Eccentricity
0.00512
Inclination
89.1519°
RAAN
286.1307°
Arg. of periapsis
205.2492°
True anomaly
154.86979°
Mean anomaly
154.6199°
Eccentric anomaly
154.74499°
Mean motion
3.56362 °/min
Orbital period
101.02 mins
BSTAR
0.00057462
Loading maneuver chart data...
Computing Atmospheric mass density...
Loading historical data...
Loading historical data...
Loading historical data...
Loading historical data...
Loading historical data...
Loading historical data...
Loading historical data...

Documentation

Showing up to 5 results
|